Weather History for KSYN - September, 2013

Change the Weather History Date:

Sunday, September 8, 2013

  Actual Average (KLVN) Record (KLVN)
Temperature  
Mean Temperature 72 °F -  
Max Temperature 77 °F 76 °F 94 °F (1980)
Min Temperature 66 °F 53 °F 40 °F (1986)
Cooling Degree Days 6    
Growing Degree Days 22 (Base 50)    
Moisture  
Dew Point 62 °F    
Average Humidity 73    
Maximum Humidity 83    
Minimum Humidity 58    
Precipitation  
Precipitation 0.00 in - - ()
Sea Level Pressure  
Sea Level Pressure 29.98 in    
Wind  
Wind Speed 8 mph (ESE)    
Max Wind Speed 12 mph    
Max Gust Speed 17 mph    
Visibility 10 miles    
Events      
Averages and records for this station are not official NWS values.
T = Trace of Precipitation, MM = Missing Value Source: NWS Daily Summary

Daily Weather History Graph

Daily Weather History Graph

Search for Another Location

Airport or City:

Trip Planner

Search our weather history database for the weather conditions in past years. The results will help you decide how hot, cold, wet, or windy it might be!

Date:

Astronomy

Sep. 08, 2013 Rise Set
Actual Time 6:43 AM CDT 7:35 PM CDT
Civil Twilight 6:13 AM CDT 8:04 PM CDT
Nautical Twilight 5:38 AM CDT 8:39 PM CDT
Astronomical Twilight 5:01 AM CDT 9:16 PM CDT
Moon 10:11 AM CDT (9/8) 9:00 PM CDT (9/8)
Length of Visible Light 13h 51m
Length of Day
12h 52m
Waxing Crescent, 11% of the Moon is Illuminated
Sep 8
Waxing Crescent
Sep 12
First Quarter
Sep 19
Full
Sep 26
Last Quarter
Oct 4
New

Hourly Weather History & Observations

Time (CDT) Temp. Dew Point Humidity Pressure Visibility Wind Dir Wind Speed Gust Speed Precip Events Conditions
12:12 AM 72.1 °F 63.9 °F 75% 30.00 in 10.0 mi NE 8.1 mph - N/A   Clear
12:32 AM 71.4 °F 63.7 °F 76% 30.00 in 10.0 mi NE 8.1 mph - N/A   Clear
12:52 AM 70.7 °F 63.5 °F 78% 30.01 in 10.0 mi NE 5.8 mph - N/A   Clear
1:12 AM 70.0 °F 63.5 °F 80% 30.01 in 10.0 mi NE 6.9 mph - N/A   Clear
1:32 AM 69.6 °F 63.5 °F 81% 30.02 in 10.0 mi NE 6.9 mph - N/A   Clear
1:52 AM 68.9 °F 63.5 °F 83% 30.01 in 10.0 mi NE 6.9 mph - N/A   Clear
2:12 AM 68.7 °F 63.1 °F 82% 30.01 in 10.0 mi NE 9.2 mph - N/A   Clear
2:31 AM 68.2 °F 62.8 °F 83% 30.01 in 10.0 mi ENE 6.9 mph - N/A   Clear
2:52 AM 68.0 °F 62.6 °F 83% 30.01 in 10.0 mi ENE 9.2 mph - N/A   Clear
3:12 AM 67.5 °F 62.1 °F 83% 30.01 in 10.0 mi ENE 11.5 mph - N/A   Clear
3:32 AM 67.1 °F 61.5 °F 82% 30.02 in 10.0 mi NE 8.1 mph - N/A   Clear
3:52 AM 66.6 °F 61.2 °F 83% 30.01 in 10.0 mi ENE 5.8 mph - N/A   Scattered Clouds
4:11 AM 67.1 °F 60.8 °F 80% 30.01 in 10.0 mi NE 5.8 mph - N/A   Mostly Cloudy
4:32 AM 67.1 °F 60.4 °F 79% 30.01 in 10.0 mi NE 6.9 mph - N/A   Overcast
4:52 AM 67.3 °F 60.3 °F 78% 30.01 in 10.0 mi ENE 6.9 mph - N/A   Overcast
5:12 AM 67.5 °F 60.3 °F 78% 30.01 in 10.0 mi ENE 6.9 mph - N/A   Overcast
5:32 AM 67.5 °F 59.9 °F 77% 30.01 in 10.0 mi ENE 6.9 mph - N/A   Overcast
5:52 AM 67.5 °F 60.3 °F 78% 30.01 in 10.0 mi ENE 9.2 mph - N/A   Overcast
6:12 AM 67.3 °F 60.4 °F 79% 30.01 in 10.0 mi East 8.1 mph - N/A   Overcast
6:32 AM 67.3 °F 60.8 °F 80% 30.01 in 10.0 mi East 5.8 mph - N/A   Overcast
6:52 AM 67.3 °F 60.8 °F 80% 30.02 in 10.0 mi East 8.1 mph - N/A   Overcast
7:12 AM 67.5 °F 60.8 °F 79% 30.01 in 10.0 mi East 9.2 mph - N/A   Overcast
7:31 AM 68.0 °F 61.0 °F 78% 30.02 in 10.0 mi East 8.1 mph - N/A   Overcast
7:52 AM 68.4 °F 61.3 °F 78% 30.02 in 10.0 mi East 8.1 mph - N/A   Overcast
8:12 AM 68.5 °F 61.7 °F 79% 30.02 in 10.0 mi East 9.2 mph - N/A   Overcast
8:32 AM 68.5 °F 61.7 °F 79% 30.04 in 10.0 mi East 8.1 mph - N/A   Overcast
8:52 AM 68.4 °F 61.7 °F 79% 30.04 in 10.0 mi ESE 8.1 mph - N/A   Overcast
9:12 AM 68.7 °F 61.9 °F 79% 30.04 in 10.0 mi ESE 4.6 mph - N/A   Overcast
9:32 AM 68.7 °F 61.7 °F 78% 30.04 in 10.0 mi ESE 10.4 mph - N/A   Overcast
9:52 AM 69.1 °F 61.3 °F 76% 30.04 in 10.0 mi ESE 6.9 mph - N/A   Overcast
10:12 AM 69.8 °F 60.6 °F 73% 30.04 in 10.0 mi ESE 10.4 mph - N/A   Overcast
10:32 AM 70.9 °F 60.1 °F 69% 30.04 in 10.0 mi East 9.2 mph - N/A   Overcast
10:52 AM 72.0 °F 60.1 °F 66% 30.03 in 10.0 mi ESE 9.2 mph 17.3 mph N/A   Overcast
11:12 AM 72.3 °F 59.7 °F 64% 30.03 in 10.0 mi ESE 9.2 mph 16.1 mph N/A   Overcast
11:32 AM 73.9 °F 60.1 °F 62% 30.02 in 10.0 mi SE 9.2 mph - N/A   Scattered Clouds
11:52 AM 74.5 °F 60.1 °F 61% 30.02 in 10.0 mi SE 9.2 mph - N/A   Clear
12:12 PM 75.0 °F 60.6 °F 61% 30.01 in 10.0 mi ESE 8.1 mph - N/A   Clear
12:32 PM 75.2 °F 61.0 °F 61% 30.00 in 10.0 mi East 8.1 mph - N/A   Clear
12:52 PM 76.3 °F 61.3 °F 60% 30.00 in 10.0 mi East 8.1 mph - N/A   Clear
1:12 PM 76.5 °F 61.0 °F 59% 30.00 in 10.0 mi SE 6.9 mph - N/A   Clear
1:32 PM 77.2 °F 61.3 °F 58% 30.00 in 10.0 mi East 6.9 mph - N/A   Clear
1:52 PM 76.1 °F 61.9 °F 61% 29.98 in 10.0 mi ESE 6.9 mph - N/A   Clear
2:12 PM 76.5 °F 62.4 °F 62% 29.96 in 10.0 mi East 10.4 mph - N/A   Clear
2:32 PM 75.7 °F 62.2 °F 63% 29.97 in 10.0 mi ESE 6.9 mph - N/A   Clear
2:52 PM 76.6 °F 62.6 °F 62% 29.95 in 10.0 mi ESE 6.9 mph - N/A   Clear
3:12 PM 77.5 °F 62.8 °F 60% 29.95 in 10.0 mi ESE 8.1 mph - N/A   Clear
3:32 PM 77.0 °F 62.8 °F 61% 29.93 in 10.0 mi SSE 9.2 mph - N/A   Clear
3:52 PM 77.0 °F 63.3 °F 63% 29.92 in 10.0 mi SE 9.2 mph - N/A   Clear
4:12 PM 77.9 °F 63.5 °F 61% 29.92 in 10.0 mi SE 8.1 mph - N/A   Clear
4:32 PM 77.2 °F 63.7 °F 63% 29.92 in 10.0 mi ESE 10.4 mph - N/A   Scattered Clouds
4:52 PM 77.5 °F 64.0 °F 63% 29.91 in 10.0 mi ESE 6.9 mph - N/A   Scattered Clouds
5:12 PM 77.0 °F 63.9 °F 64% 29.91 in 10.0 mi SE 6.9 mph - N/A   Clear
5:32 PM 76.8 °F 64.2 °F 65% 29.91 in 10.0 mi SE 5.8 mph - N/A   Scattered Clouds
5:52 PM 76.1 °F 64.2 °F 67% 29.92 in 10.0 mi SE 6.9 mph - N/A   Overcast
6:12 PM 75.4 °F 64.0 °F 68% 29.92 in 10.0 mi SE 4.6 mph - N/A   Overcast
6:32 PM 74.8 °F 63.9 °F 69% 29.92 in 10.0 mi ESE 5.8 mph - N/A   Overcast
6:52 PM 74.3 °F 64.0 °F 70% 29.91 in 10.0 mi SE 6.9 mph - N/A   Overcast
7:12 PM 73.8 °F 64.0 °F 72% 29.91 in 10.0 mi SE 5.8 mph - N/A   Overcast
7:32 PM 73.4 °F 63.5 °F 71% 29.92 in 10.0 mi SSE 6.9 mph - N/A   Overcast
7:52 PM 72.9 °F 63.5 °F 72% 29.92 in 10.0 mi SE 5.8 mph - N/A   Overcast
8:11 PM 72.5 °F 63.5 °F 73% 29.92 in 10.0 mi ESE 5.8 mph - N/A   Overcast
8:32 PM 72.0 °F 63.5 °F 75% 29.93 in 10.0 mi ESE 6.9 mph - N/A   Overcast
8:52 PM 71.6 °F 63.5 °F 76% 29.93 in 10.0 mi ESE 5.8 mph - N/A   Overcast
9:12 PM 71.2 °F 63.5 °F 76% 29.92 in 10.0 mi SE 6.9 mph - N/A   Overcast
9:32 PM 71.1 °F 63.5 °F 77% 29.93 in 10.0 mi SE 5.8 mph - N/A   Overcast
9:52 PM 70.9 °F 63.5 °F 77% 29.92 in 10.0 mi SE 6.9 mph - N/A   Overcast
10:12 PM 70.7 °F 63.1 °F 77% 29.92 in 10.0 mi SE 8.1 mph - N/A   Overcast
10:32 PM 70.7 °F 63.1 °F 77% 29.91 in 10.0 mi SE 5.8 mph - N/A   Overcast
10:52 PM 70.2 °F 63.5 °F 79% 29.91 in 10.0 mi SE 4.6 mph - N/A   Overcast
11:12 PM 70.2 °F 63.5 °F 79% 29.90 in 10.0 mi SE 3.5 mph - N/A   Overcast
11:32 PM 70.2 °F 63.5 °F 79% 29.90 in 10.0 mi SE 5.8 mph - N/A   Overcast
11:52 PM 69.8 °F 63.5 °F 80% 29.90 in 10.0 mi SE 5.8 mph - N/A   Overcast